Location: D.A.R.C. Observatory
(36.7133°N, 120.8553°W)
Time: 18:33:53
(UTC-07:00)

Daily predictions for brighter satellites

Satellite Brightness Start Highest point End
(mag) Time Altitude Azimuth Time Altitude Azimuth Time Altitude Azimuth
Timation 1 Rocket 4.4 19:42:44 10° S 19:48:39 65° ESE 19:54:36 10° NNE
METEOR-M 4.3 19:43:46 10° S 19:49:06 83° WSW 19:54:29 10° NNW
Cosmos 2082 Rocket 3.0 19:45:28 10° N 19:50:30 31° ENE 19:55:27 10° ESE
FengYun 1-2 T 4.5 19:45:28 10° SE 19:50:49 50° ENE 19:56:14 10° N
FREGAT/IRIS 2.6 19:49:16 10° SSE 19:52:19 80° E 19:55:23 10° N
Cosmos 1605 Rocket 4.0 19:47:48 10° S 19:53:59 65° E 20:00:17 10° NNE
H-II Stage 2 2.9 19:53:23 10° SSW 19:54:40 14° S 19:55:58 10° SE
COSMOS 2487 3.8 19:54:50 10° NNE 19:57:44 23° ENE 20:00:38 10° ESE
Cosmos 1271 Rocket 4.1 19:55:40 10° SE 19:58:41 21° E 20:01:43 10° NE
Cosmos 1758 3.5 19:56:41 10° SSE 20:00:31 50° E 20:04:24 10° NNE
Meteor 1-24 Rocket 4.0 19:55:11 10° NNW 20:00:44 75° W 20:06:29 10° S
Cosmos 1953 2.4 20:02:50 10° S 20:06:48 55° E 20:10:46 10° NNE
Cosmos 1674 3.7 20:04:57 10° NNE 20:08:09 26° ENE 20:11:14 11° SE
Cosmos 372 Rocket 4.0 20:03:29 10° S 20:08:26 56° ESE 20:13:28 10° NNE
Cosmos 1818 3.6 20:04:17 10° NNW 20:09:43 68° ENE 20:15:05 10° SE
Cosmos 1269 Rocket 4.4 20:05:01 10° N 20:10:06 46° ENE 20:15:09 10° SE
BREEZE-M DEB (TANK) 2.7 20:08:23 10° SW 20:11:05 53° SE 20:18:14 10° ENE
Cosmos 2123 Rocket 4.1 20:05:14 10° N 20:11:34 85° W 20:17:49 10° S
Lacrosse 5 4.0 20:07:57 10° W 20:12:06 25° NW 20:16:17 10° NNE
Resurs 1-3 3.8 20:09:32 10° SSE 20:13:45 49° ENE 20:18:00 10° N
Cosmos 158 Rocket 4.5 20:09:16 10° N 20:14:07 41° ENE 20:18:59 11° SE
Cosmos 468 4.5 20:09:22 10° NNW 20:14:36 75° ENE 20:19:50 10° SSE
Cosmos 1408 Rocket 4.2 20:11:15 10° N 20:15:23 36° ENE 20:19:30 10° SE
Meteor 1-4 Rocket 2.3 20:12:36 10° S 20:16:03 84° E 20:19:32 10° N
Helios 1B rocket 3.0 20:18:15 10° NNE 20:22:02 34° E 20:25:47 10° SSE
USA 215 3.9 20:20:08 10° ENE 20:25:50 32° SE 20:31:31 10° S
CZ-3B DEB 4.4 20:16:36 10° WSW 20:26:29 33° NW 20:31:36 10° NNE
Lacrosse 5 rocket 2.4 20:25:10 10° NNW 20:28:31 26° NE 20:29:53 21° ENE
Cosmos 1544 4.1 20:25:35 10° SSW 20:29:06 49° W 20:32:42 10° N
Spot 2 Rocket 3.5 20:27:43 10° SSE 20:32:49 88° ENE 20:37:57 10° NNW
CZ-2D R/B 3.1 20:29:44 10° SSE 20:33:35 73° ENE 20:37:28 10° N
Cosmos 2098 Rocket 4.5 20:27:05 10° S 20:34:21 88° W 20:42:00 10° N
Cosmos 1076 Rocket 3.4 20:30:45 10° N 20:35:00 88° W 20:39:14 10° S
Abrixas 2.9 20:34:32 10° WNW 20:37:17 49° SW 20:38:14 32° SSE
Cosmos 2061 Rocket 4.1 20:33:12 10° SSE 20:39:22 53° E 20:45:36 10° NNE
Tiangong 1 3.9 20:40:57 10° SW 20:41:33 10° SW 20:42:09 10° SSW
Helios 1A 3.0 20:39:35 22° SE 20:42:02 55° ENE 20:46:08 10° N
Cosmos 1459 Rocket 3.9 20:37:25 10° S 20:43:35 63° E 20:49:41 10° NNE
ALOS 3.8 20:41:36 10° SSW 20:45:54 37° W 20:50:14 10° NNW
Timation 2 Rocket 3.8 20:40:53 10° NNW 20:47:09 74° ENE 20:51:22 21° SSE
PSLV R/B 4.3 20:45:47 10° SW 20:47:53 28° S 20:47:53 28° S
Envisat 3.2 20:48:55 30° SE 20:51:03 48° ENE 20:55:55 10° N
Gblst 52 Del rocket 4.3 20:45:13 10° SSW 20:51:12 55° SE 20:54:40 22° ENE
Cosmos 2173 Rocket 3.9 20:45:51 10° S 20:51:57 72° E 20:58:12 10° N
Cosmos 1733 3.2 20:49:16 10° S 20:53:07 84° W 20:57:01 10° N
GPS 2-05 Rocket1 2.8 20:49:46 10° W 20:53:19 76° S 20:53:50 61° ESE
Cosmos 1833 Rocket 2.7 20:48:33 10° NNW 20:54:11 85° WSW 20:58:19 19° SSE
DASH 3.9 20:39:30 10° WSW 20:54:34 45° SSW 20:56:27 30° SE
Cosmos 1470 2.9 20:51:29 10° SSW 20:55:27 74° W 20:59:25 10° N
Meteor 2-17 Rocket 4.4 20:53:32 10° S 20:59:31 58° E 21:05:33 10° NNE
Spot 1 4.3 20:56:39 20° SSE 20:59:53 89° WSW 21:04:50 10° NNW
USA 186 3.2 21:01:11 24° NW 21:01:11 24° NW 21:02:19 10° NNW
SeaSat 1 3.4 20:55:46 10° S 21:00:28 45° WSW 21:05:11 10° NW
Cosmos-2242 3.4 20:56:53 10° SSW 21:01:05 62° W 21:05:18 10° N
Cosmos 1766 Rocket 4.1 20:58:01 10° NNW 21:02:27 61° W 21:06:50 10° S
ERS-1 Rocket 3.7 21:03:15 33° ENE 21:03:15 33° ENE 21:07:37 10° N
CZ-4B DEB 4.4 21:03:19 66° SSE 21:03:48 89° E 21:07:24 10° NNW
ATLAS 5 CENTAUR R/B 3.0 20:59:51 10° WSW 21:04:17 42° NW 21:09:05 10° NNE
CZ-4B DEB 3.4 21:06:15 46° N 21:06:15 46° N 21:08:33 10° N
GP-B 3.6 21:01:05 10° S 21:05:28 61° W 21:09:53 10° N
Geosat 4.3 21:00:58 10° NNE 21:05:57 67° WNW 21:10:56 10° SW
Cosmos 1356 Rocket 4.2 21:03:48 10° N 21:06:39 34° NE 21:06:39 34° NE
OAO 2 Rocket 3.7 21:03:54 10° SW 21:08:51 47° SSE 21:09:17 46° SE
Cosmos 1340 Rocket 2.9 21:08:55 10° NNW 21:12:55 71° W 21:13:50 50° SSW
Resurs 01 Rocket 3.7 21:11:16 10° SSW 21:14:59 27° W 21:18:45 10° NW
ISS -1.4 21:14:19 10° W 21:16:53 21° NNW 21:18:08 17° N
Meteor 1-29 4.1 21:19:01 10° N 21:22:20 43° WNW 21:24:19 21° SW
Cosmos 2016 Rocket 3.9 21:17:56 10° S 21:24:10 87° W 21:30:21 10° N
Cosmos 1743 Rocket 4.0 21:29:12 10° NNW 21:33:35 59° W 21:34:04 55° SW
Cosmos 1725 Rocket 3.8 21:31:58 46° S 21:33:55 77° E 21:40:07 10° N
Cosmos 2082 Rocket 3.7 21:29:30 10° NW 21:34:31 33° WSW 21:38:32 14° SSW
Cosmos 1500 Rocket 3.9 21:30:13 10° N 21:33:45 58° NNW 21:33:45 58° NNW
ARGOS 4.5 21:36:47 26° NE 21:36:47 26° NE 21:39:45 10° N
Meteor 1-11 4.1 21:40:55 10° N 21:46:29 86° W 21:46:29 86° W
Cosmos 2251 Rocket 3.6 21:44:37 10° NNW 21:49:45 72° W 21:49:45 72° W
Cosmos 1939 Rocket 4.4 21:54:46 34° WNW 21:54:46 34° WNW 21:58:03 10° NNW
Tsikada Rocket 3.9 21:52:41 10° N 21:58:55 84° W 21:58:55 84° W
SPOT 5 4.2 22:01:22 37° N 22:01:22 37° N 22:04:36 10° N
Lacrosse 5 rocket 3.9 22:04:24 10° WNW 22:05:37 17° WNW 22:05:37 17° WNW
USA 215 3.5 22:02:36 10° NE 22:09:02 64° NW 22:15:28 10° WSW
Cosmos 2369 Rocket 3.7 22:25:00 29° N 22:25:00 29° N 22:27:49 10° NNE
USA 267 4.3 22:40:51 36° N 22:40:51 36° N 22:45:37 10° NNW
H-2A R/B 4.2 22:52:16 21° NNW 22:52:16 21° NNW 22:53:57 10° NNW
